CAPE
57 445 589 387 122 105 139 159 263 269 410 877 654 729 1103 1302 1188 987 998 1394 1148 1383 1364 1534 1955 2330 2175 2202 1989 1807 1850 1804 1764
108 342 258 557 427 175 193 208 300 359 561 727 608 639 986 1136 1198 1139 1085 1197 1385 1202 1531 1285 1884 2004 2276 2182 2197 2126 2041 1652 2325
13 124 498 546 714 264 266 253 286 310 389 662 927 691 786 755 717 863 1119 1268 1434 1405 1517 1746 1635 2067 2193 2310 2321 2252 2245 1879 1942
8 301 433 723 654 356 309 270 252 261 316 393 437 454 887 835 771 658 859 973 1252 1623 1808 1980 2034 2121 2128 2261 2334 2412 2477 2355 2104
7 3 164 526 648 330 338 278 248 229 340 323 343 564 629 658 810 756 663 808 922 1176 1651 1819 2073 2195 2270 2295 2328 2403 2446 2350 1953
3 5 7 10 62 159 467 301 245 211 240 252 346 495 313 202 410 726 793 901 901 988 1151 1563 1573 1919 2180 2326 2351 2409 2450 2519 2428
2 2 3 4 5 7 18 78 426 416 298 232 337 377 419 408 261 262 658 1216 1253 1024 1070 1329 1410 1658 1878 2099 2397 2464 2435 2422 2517
0 0 0 2 4 5 6 8 6 118 353 353 386 560 529 613 809 477 325 876 1336 1106 1098 1070 1172 1341 1473 1708 1750 1751 2190 2360 2491
0 0 0 0 1 4 1 10 9 4 7 181 316 383 713 945 965 1067 1066 1175 1274 1270 1090 1079 1124 1026 1372 1408 1161 674 744 1568 2187
0 0 0 0 0 0 7 7 11 2 4 76 471 575 624 730 1092 1067 1230 980 1022 1119 1268 1146 1169 1027 1024 1482 1708 819 213 402 1499
0 0 0 0 0 0 0 1 0 0 2 11 214 832 679 862 854 901 1082 1116 1062 1215 912 1086 1043 984 1178 1311 1256 578 56 2 1304
0 0 0 0 0 0 0 0 2 3 0 8 4 11 101 218 697 1157 1049 1124 1196 1184 977 845 799 841 984 1226 1383 234 1 0 936
0 0 0 0 0 0 0 0 0 6 0 6 6 4 11 19 89 313 1225 1282 1370 1359 1378 1118 960 839 860 552 1087 551 0 0 378
0 0 0 0 0 0 0 0 0 2 7 4 4 3 0 3 18 20 44 1022 1748 1531 1693 1658 1578 1492 1392 1253 964 810 0 0 402
0 0 0 0 0 0 0 0 0 4 5 16 5 0 0 0 7 20 17 58 75 349 1135 1417 1702 1721 1832 1776 1632 587 182 0 0
0 0 0 0 0 0 0 0 0 4 9 18 11 0 0 0 0 3 20 15 70 444 555 1000 1584 1763 1757 1754 1816 1841 195 0 0
1 0 0 0 2 1 0 0 0 0 12 29 4 1 0 0 0 0 5 6 8 17 99 498 774 1577 2015 1953 1819 1945 1933 726 24
18 21 15 14 17 15 9 2 0 0 3 32 9 1 0 0 0 0 0 1 0 0 2 56 573 1149 1531 1953 2140 2058 1689 1718 1861
10 27 27 41 53 38 21 25 30 16 17 18 3 5 6 0 0 1 1 0 0 0 0 0 0 0 0 107 1089 939 980 898 741
22 26 22 10 21 7 29 3 12 14 9 0 0 2 4 3 0 0 1 0 0 0 0 0 0 0 0 2 12 507 6 43 0
CIN
-187 -37 -23 -54 -106 -98 -82 -85 -108 -114 -126 -103 -116 -93 -90 -58 -37 -13 -10 -19 -18 -11 -13 -13 -15 -12 -9 -12 -23 -22 -20 -9 -7
-273 -134 -112 -59 -79 -125 -135 -109 -108 -125 -133 -135 -135 -115 -96 -88 -66 -37 -23 -25 -32 -22 -25 -19 -28 -18 -12 -13 -17 -17 -16 -6 -8
-407 -344 -174 -106 -66 -132 -143 -137 -134 -135 -127 -148 -146 -141 -110 -95 -99 -79 -47 -37 -26 -29 -29 -36 -34 -19 -18 -9 -12 -16 -18 -11 -10
-142 -264 -196 -102 -90 -120 -119 -128 -124 -139 -136 -157 -157 -163 -109 -101 -111 -105 -69 -58 -46 -28 -26 -33 -38 -35 -25 -21 -13 -16 -11 -10 -6
-0 -0 -311 -187 -127 -146 -116 -134 -132 -140 -130 -151 -178 -146 -139 -155 -115 -127 -102 -90 -76 -54 -32 -30 -33 -37 -30 -23 -19 -18 -19 -16 -13
-0 -0 -0 -151 -413 -290 -147 -131 -90 -112 -158 -123 -126 -143 -181 -204 -171 -124 -103 -90 -97 -91 -68 -37 -30 -35 -34 -26 -21 -20 -21 -18 -10
-0 -0 -0 -0 -0 -0 -207 -289 -125 -121 -130 -115 -99 -110 -130 -162 -203 -207 -115 -85 -87 -91 -90 -57 -47 -41 -38 -31 -25 -28 -26 -25 -25
-0 -0 -0 -0 -0 -0 -0 -0 -71 -218 -130 -152 -135 -100 -105 -139 -161 -189 -190 -118 -86 -105 -101 -86 -60 -51 -48 -39 -27 -22 -33 -32 -27
-0 -0 -0 -0 -0 -0 -0 -0 -0 -0 -119 -216 -181 -191 -122 -100 -89 -85 -100 -90 -96 -99 -113 -103 -91 -72 -43 -41 -38 -59 -105 -62 -25
-0 -0 -0 -0 -0 -0 -0 -0 -0 -0 -0 -329 -119 -131 -145 -119 -57 -75 -69 -95 -83 -93 -104 -112 -99 -94 -75 -46 -34 -101 -232 -251 -32
-0 -0 -0 -0 -0 -0 -0 -0 -0 -0 -0 -192 -161 -49 -102 -81 -69 -82 -56 -47 -56 -68 -109 -95 -118 -122 -91 -74 -72 -171 -398 -199 -67
-0 -0 -0 -0 -0 -0 -0 -0 -0 -0 -0 -0 -0 -79 -211 -165 -67 -32 -41 -51 -43 -41 -61 -99 -123 -129 -122 -91 -94 -287 -32 -0 -77
-0 -0 -0 -0 -0 -0 -0 -0 -0 -0 -0 -0 -0 -0 -0 -0 -212 -146 -13 -0 -6 -5 -6 -42 -73 -106 -129 -204 -127 -239 -0 -0 -157
-0 -0 -0 -0 -0 -0 -0 -0 -0 -0 -0 -0 -0 -0 -0 -0 -0 -308 -312 -17 -0 -0 -0 -2 -18 -43 -68 -104 -159 -197 -0 -0 -220
-0 -0 -0 -0 -0 -0 -0 -0 -0 -0 -0 -0 -0 -0 -0 -0 -0 -0 -197 -218 -186 -81 -0 -0 -1 -10 -23 -36 -73 -265 -279 -0 -0
-0 -0 -0 -0 -0 -0 -0 -0 -0 -0 -0 -0 -0 -0 -0 -0 -0 -0 -0 -0 -108 -29 -14 -2 -0 -0 -19 -47 -39 -44 -401 -0 -0
-0 -0 -0 -0 -0 -0 -0 -0 -0 -0 -0 -0 -0 -0 -0 -0 -0 -0 -0 -0 -0 -148 -83 -31 -17 -0 -0 -5 -29 -40 -43 -216 -65
-0 -0 -0 -0 -0 -0 -0 -0 -0 -0 -0 -0 -0 -0 -0 -0 -0 -0 -0 -0 -0 -0 -57 -89 -72 -27 -1 -0 -4 -37 -52 -47 -41
-0 -1 -0 -0 -0 -0 -0 -0 -0 -0 -0 -1 -5 -0 -0 -0 -0 -0 -0 -0 -0 -0 -0 -0 -0 -0 -0 -319 -72 -134 -129 -136 -132
-0 -0 -0 -0 -0 -0 -2 -0 -0 -3 -3 -0 -0 -0 -0 -0 -0 -0 -0 -0 -0 -0 -0 -0 -0 -0 -0 -0 -9 -233 -16 -558 -0
Wind_Speed
9 19 19 19 20 20 18 18 18 18 18 16 16 16 15 13 13 9 9 10 8 7 7 7 7 8 7 6 5 5 4 4 5
13 6 17 20 19 19 19 19 19 18 18 18 17 19 14 14 13 13 11 10 9 7 7 6 8 9 9 8 7 7 6 5 5
16 8 10 15 17 18 17 19 18 19 18 18 19 18 16 14 14 14 12 10 11 10 8 8 8 9 9 8 9 8 7 6 6
17 16 1 8 11 14 15 15 16 17 17 16 16 17 15 15 14 14 13 12 12 11 9 9 9 9 9 9 9 9 9 8 7
17 18 17 14 7 5 11 13 12 15 15 16 16 13 14 13 12 13 14 14 14 12 12 10 10 8 9 9 9 9 10 10 9
16 18 19 17 16 14 11 3 10 11 12 14 14 12 13 10 11 12 16 15 14 13 13 13 11 10 10 10 10 11 11 11 10
16 16 18 16 16 14 14 12 10 5 7 11 12 14 15 13 13 13 15 14 14 14 13 13 13 13 12 12 11 12 11 11 11
15 17 18 17 16 14 13 13 13 10 8 6 11 13 15 17 16 15 13 13 14 14 14 14 14 14 14 13 12 10 12 12 12
14 15 16 17 17 16 16 14 14 13 12 10 8 11 15 14 13 13 14 14 15 14 15 14 14 15 15 15 13 13 14 13 12
13 14 15 16 16 15 14 14 13 13 12 11 9 9 11 14 13 14 14 15 14 14 14 14 15 15 15 16 16 12 15 17 14
12 13 14 14 14 15 15 14 12 13 12 12 12 5 4 9 12 14 14 14 15 14 13 14 14 15 15 15 14 14 16 17 18
13 13 12 12 12 14 13 14 16 14 12 10 10 12 10 8 10 13 14 14 14 14 13 13 14 14 15 16 16 15 18 15 16
14 15 13 14 15 14 13 14 15 15 13 13 12 11 13 14 9 8 9 12 13 13 13 14 12 14 15 16 17 14 17 17 14
11 12 15 16 15 13 13 14 14 14 14 12 12 13 12 12 13 8 7 8 8 12 13 13 13 14 14 15 16 16 17 19 15
15 14 14 15 14 16 15 14 13 13 13 13 13 13 13 11 12 10 8 7 6 8 7 11 11 13 13 13 15 16 15 19 23
16 16 13 13 13 16 17 15 13 14 13 12 11 12 13 14 13 12 8 8 10 7 10 11 11 11 11 12 12 13 18 18 21
15 16 16 15 15 16 18 15 15 15 14 11 10 11 12 12 13 12 12 8 8 7 10 10 10 9 12 12 12 12 12 11 11
13 17 16 15 15 15 17 17 17 16 15 10 9 10 11 11 10 12 12 10 9 10 9 9 10 7 8 11 13 14 12 12 10
9 12 13 14 15 14 14 17 17 15 14 8 8 9 9 9 10 10 9 10 12 12 16 14 19 17 13 12 16 13 11 13 11
11 9 8 8 10 13 13 12 13 11 6 7 9 9 9 9 10 11 11 11 9 11 9 13 18 18 19 16 21 13 10 12 13
Wind_Direction
210 204 205 205 201 197 198 199 197 198 198 202 200 207 205 207 211 217 219 209 200 207 208 204 196 197 206 188 194 199 197 215 222
11 255 212 208 199 198 197 199 201 198 200 200 203 205 207 207 209 218 222 220 214 207 213 212 201 201 201 199 193 205 197 228 218
0 325 250 214 209 201 196 199 201 203 206 201 200 204 205 213 213 216 220 214 218 215 212 216 204 208 206 201 197 202 202 214 218
14 18 182 212 206 208 200 199 201 206 208 209 210 208 208 208 209 212 223 223 217 218 213 208 211 213 211 207 204 207 209 223 218
21 35 40 39 21 213 188 200 204 210 212 209 212 210 210 209 216 208 214 220 220 217 221 215 213 210 215 215 209 208 212 216 217
27 31 34 35 37 37 26 289 225 215 208 222 217 208 209 202 209 214 218 224 221 215 221 223 222 216 213 216 217 215 218 224 228
32 32 31 27 26 23 20 24 27 351 252 235 225 217 216 209 203 208 222 225 221 221 219 222 225 224 221 221 219 214 215 220 225
34 28 25 23 19 15 12 12 8 3 360 325 257 226 224 222 217 211 214 217 221 221 220 224 227 231 228 228 229 224 218 219 221
31 23 18 12 11 12 10 359 358 350 343 328 307 259 242 238 230 225 220 220 219 215 218 223 224 227 231 234 233 223 207 216 219
24 14 7 3 2 358 356 352 346 343 328 312 280 260 252 250 243 233 227 227 227 223 221 218 220 228 231 232 234 222 208 211 229
13 5 359 353 349 347 345 346 351 340 340 356 345 322 296 270 252 246 240 234 233 231 228 225 221 224 227 231 233 216 209 207 229
352 348 344 343 338 336 333 339 347 347 344 349 355 353 339 340 325 254 245 242 241 239 236 232 231 231 226 228 236 213 211 203 231
338 335 336 335 333 328 334 337 338 337 345 341 350 346 334 321 313 304 285 252 246 244 237 239 237 238 232 229 238 220 212 204 230
320 322 324 329 326 323 330 330 330 328 332 338 337 332 329 327 320 316 307 302 266 240 241 247 243 241 240 238 231 235 205 202 223
315 318 321 322 317 316 321 324 321 318 319 327 327 327 325 326 319 313 335 304 292 296 258 241 242 247 248 242 241 229 215 202 210
313 313 314 313 309 308 309 315 315 307 309 316 320 323 321 323 325 323 307 310 294 281 256 259 259 247 245 250 248 240 213 209 207
315 314 312 308 303 299 300 306 306 300 300 300 305 313 316 316 319 321 314 309 295 281 277 267 259 259 255 252 248 245 242 217 216
324 319 309 304 303 300 298 299 295 293 293 283 286 303 308 306 301 307 304 295 285 276 263 268 292 283 277 256 249 245 235 234 220
304 321 320 311 312 314 315 301 292 287 284 279 280 291 294 302 300 291 290 291 288 251 251 268 272 256 247 277 266 277 226 218 229
316 314 326 326 322 328 325 341 333 324 326 301 293 286 291 290 292 291 291 285 290 299 283 246 246 251 263 245 263 258 232 224 226